Tracking 30061 objects as of 8-Dec-2024
HD Live streaming from Space Station
objects crossing your sky now

NIMBUS 5

Track NIMBUS 5 now!
10-day predictions
NIMBUS 5 is classified as:


NORAD ID: 6305
Int'l Code: 1972-097A
Perigee: 1,093.9 km
Apogee: 1,107.5 km
Inclination: 99.9 °
Period: 107.1 minutes
Semi major axis: 7471 km
RCS: 3.4528 m2 (large)
Launch date: December 11, 1972
Source: United States (US)
Launch site: AIR FORCE WESTERN TEST RANGE (AFWTR)
Your satellite tracking list
Your tracking list is empty




NASA's NSSDC Master Catalog

Two Line Element Set (TLE):
1 06305U 72097A   24342.72021597  .00000012  00000-0  96365-4 0  9993
2 06305  99.8508 243.5452 0009103  71.5546 343.2363 13.44219736549968
Source of the keplerian elements: AFSPC